EN

Hourly Weather Abramiha

Today, 26 November, Thursday

Time Temperature Precipitation Wind Pressure Humidity
00:00 -1°C° 0 mm 1 mps 741 mmHg 88%
01:00 -1°C° 0 mm 1 mps 742 mmHg 90%
02:00 -1°C° 0 mm 1 mps 742 mmHg 93%
03:00 -2°C° 0.1 mm 2 mps 741 mmHg 93%
04:00 -2°C° 0.1 mm 2 mps 741 mmHg 94%
05:00 -2°C° 0.1 mm 3 mps 740 mmHg 95%
06:00 -1°C° 0.4 mm 3 mps 740 mmHg 95%
07:00 -1°C° 0.4 mm 3 mps 740 mmHg 95%
08:00 -1°C° 0 mm 3 mps 740 mmHg 94%
09:00 -1°C° 0.5 mm 3 mps 740 mmHg 95%
10:00 0°C° 0.5 mm 3 mps 739 mmHg 96%
11:00 0°C° 0.5 mm 3 mps 739 mmHg 97%
12:00 +1°C° 0 mm 3 mps 739 mmHg 97%
13:00 +1°C° 0 mm 3 mps 739 mmHg 97%
14:00 +2°C° 0 mm 3 mps 738 mmHg 97%
15:00 +2°C° 0 mm 3 mps 738 mmHg 96%
16:00 +2°C° 0 mm 3 mps 738 mmHg 95%
17:00 +1°C° 0 mm 4 mps 737 mmHg 94%
18:00 0°C° 0 mm 4 mps 737 mmHg 93%
19:00 0°C° 0 mm 4 mps 737 mmHg 91%
20:00 0°C° 0 mm 4 mps 737 mmHg 90%
21:00 -1°C° 0 mm 4 mps 736 mmHg 90%
22:00 -1°C° 0 mm 4 mps 736 mmHg 90%
23:00 -2°C° 0 mm 4 mps 735 mmHg 91%

Tomorrow, 27 November, Friday

Time Temperature Precipitation Wind Pressure Humidity
00:00 -2°C° 0 mm 4 mps 735 mmHg 91%
01:00 -2°C° 0 mm 4 mps 735 mmHg 90%
02:00 -2°C° 0 mm 5 mps 735 mmHg 90%
03:00 -2°C° 0 mm 4 mps 734 mmHg 90%
04:00 -2°C° 0 mm 4 mps 734 mmHg 91%
05:00 -2°C° 0 mm 4 mps 734 mmHg 91%
06:00 -2°C° 0 mm 4 mps 734 mmHg 91%
07:00 -2°C° 0 mm 4 mps 733 mmHg 92%
08:00 -2°C° 0 mm 4 mps 733 mmHg 93%
09:00 -2°C° 0.2 mm 4 mps 733 mmHg 94%
10:00 -1°C° 0.2 mm 3 mps 733 mmHg 95%
11:00 -1°C° 0.2 mm 3 mps 733 mmHg 96%
12:00 -1°C° 0.4 mm 3 mps 733 mmHg 97%
13:00 -1°C° 0.4 mm 3 mps 733 mmHg 97%
14:00 -1°C° 0.4 mm 3 mps 733 mmHg 97%
15:00 -1°C° 0.3 mm 2 mps 733 mmHg 98%
16:00 -1°C° 0.3 mm 2 mps 733 mmHg 98%
17:00 -1°C° 0.3 mm 2 mps 733 mmHg 98%
18:00 -1°C° 0.2 mm 2 mps 733 mmHg 98%
19:00 +1°C° 0.2 mm 2 mps 734 mmHg 98%
20:00 +1°C° 0.2 mm 2 mps 734 mmHg 98%
21:00 +1°C° 0.3 mm 2 mps 734 mmHg 98%
22:00 +1°C° 0.3 mm 2 mps 734 mmHg 98%
23:00 +1°C° 0.3 mm 2 mps 735 mmHg 98%

Day after tomorrow, 28 November, Saturday

Time Temperature Precipitation Wind Pressure Humidity
00:00 +1°C° 0.2 mm 2 mps 735 mmHg 98%
01:00 +1°C° 0.2 mm 2 mps 735 mmHg 98%
02:00 +2°C° 0.2 mm 1 mps 736 mmHg 98%
03:00 +2°C° 0.2 mm 1 mps 736 mmHg 98%
04:00 +2°C° 0.2 mm 1 mps 737 mmHg 98%
05:00 +2°C° 0.2 mm 1 mps 737 mmHg 98%
06:00 +2°C° 0.2 mm 1 mps 737 mmHg 98%
07:00 +2°C° 0.2 mm 1 mps 738 mmHg 98%
08:00 +2°C° 0.2 mm 1 mps 739 mmHg 98%
09:00 +2°C° 0.2 mm 1 mps 739 mmHg 98%
10:00 +2°C° 0.2 mm 1 mps 740 mmHg 98%
11:00 +1°C° 0.2 mm 2 mps 740 mmHg 98%
12:00 +1°C° 0 mm 2 mps 740 mmHg 97%
13:00 +1°C° 0 mm 2 mps 741 mmHg 97%
14:00 +1°C° 0 mm 2 mps 741 mmHg 97%
15:00 +1°C° 0 mm 2 mps 742 mmHg 97%
16:00 +1°C° 0 mm 2 mps 742 mmHg 97%
17:00 -1°C° 0 mm 2 mps 742 mmHg 98%
18:00 -1°C° 0.1 mm 2 mps 743 mmHg 97%
19:00 -1°C° 0.1 mm 2 mps 743 mmHg 97%
20:00 -1°C° 0.1 mm 2 mps 744 mmHg 97%
21:00 -1°C° 0.1 mm 2 mps 744 mmHg 97%
22:00 -1°C° 0.1 mm 2 mps 744 mmHg 97%
23:00 -1°C° 0.1 mm 2 mps 745 mmHg 98%

29 November, Sunday

Time Temperature Precipitation Wind Pressure Humidity
00:00 -1°C° 0.1 mm 2 mps 745 mmHg 97%
01:00 -2°C° 0.1 mm 2 mps 745 mmHg 96%
02:00 0°C° 0.1 mm 1 mps 746 mmHg 96%
03:00 -2°C° 0 mm 2 mps 745 mmHg 95%
04:00 -2°C° 0 mm 2 mps 745 mmHg 94%
05:00 -2°C° 0 mm 3 mps 745 mmHg 93%
06:00 -2°C° 0 mm 3 mps 745 mmHg 94%
07:00 -3°C° 0 mm 4 mps 745 mmHg 94%
08:00 -2°C° 0 mm 4 mps 745 mmHg 94%
09:00 -2°C° 0.2 mm 4 mps 745 mmHg 95%
10:00 -2°C° 0.2 mm 5 mps 745 mmHg 96%
11:00 -1°C° 0.2 mm 5 mps 745 mmHg 97%
12:00 -1°C° 0.4 mm 5 mps 745 mmHg 97%
13:00 0°C° 0.4 mm 5 mps 744 mmHg 97%
14:00 0°C° 0.4 mm 5 mps 744 mmHg 97%
15:00 0°C° 0.2 mm 5 mps 744 mmHg 97%
16:00 -1°C° 0.2 mm 5 mps 744 mmHg 96%
17:00 -1°C° 0.2 mm 5 mps 744 mmHg 96%
18:00 0°C° 0 mm 5 mps 744 mmHg 95%
19:00 0°C° 0 mm 5 mps 744 mmHg 94%
20:00 0°C° 0 mm 5 mps 744 mmHg 93%
21:00 +1°C° 0 mm 5 mps 744 mmHg 93%
22:00 +1°C° 0 mm 5 mps 743 mmHg 92%
23:00 +1°C° 0 mm 6 mps 743 mmHg 92%

30 November, Monday

Time Temperature Precipitation Wind Pressure Humidity
00:00 +1°C° 0.1 mm 6 mps 743 mmHg 92%
01:00 +1°C° 0.1 mm 5 mps 743 mmHg 92%
02:00 +1°C° 0.1 mm 5 mps 743 mmHg 92%
03:00 +1°C° 0.9 mm 5 mps 743 mmHg 93%
04:00 +1°C° 0.9 mm 5 mps 743 mmHg 94%
05:00 +1°C° 0.9 mm 5 mps 743 mmHg 95%
06:00 +1°C° 0.8 mm 5 mps 743 mmHg 95%
07:00 0°C° 0.8 mm 4 mps 744 mmHg 95%
08:00 0°C° 0.8 mm 4 mps 744 mmHg 95%
09:00 0°C° 0 mm 4 mps 745 mmHg 91%
10:00 0°C° 0 mm 4 mps 745 mmHg 88%
11:00 0°C° 0 mm 4 mps 745 mmHg 85%
12:00 -1°C° 0 mm 4 mps 745 mmHg 85%
13:00 -1°C° 0 mm 4 mps 745 mmHg 84%
14:00 -1°C° 0 mm 4 mps 746 mmHg 83%
15:00 -2°C° 0 mm 4 mps 746 mmHg 85%
16:00 -2°C° 0 mm 4 mps 746 mmHg 86%
17:00 -2°C° 0 mm 4 mps 746 mmHg 88%
18:00 -3°C° 0 mm 4 mps 747 mmHg 87%
19:00 -3°C° 0 mm 4 mps 747 mmHg 86%
20:00 -3°C° 0 mm 4 mps 747 mmHg 86%
21:00 -3°C° 0 mm 4 mps 748 mmHg 85%
22:00 -3°C° 0 mm 4 mps 748 mmHg 84%
23:00 -3°C° 0 mm 4 mps 748 mmHg 83%

1 December, Tuesday

Time Temperature Precipitation Wind Pressure Humidity
00:00 -3°C° 0 mm 4 mps 748 mmHg 83%
01:00 -2°C° 0 mm 3 mps 749 mmHg 83%
02:00 -2°C° 0 mm 3 mps 749 mmHg 83%
03:00 -2°C° 0 mm 3 mps 749 mmHg 84%
04:00 -2°C° 0 mm 2 mps 749 mmHg 85%
05:00 -2°C° 0 mm 2 mps 749 mmHg 85%
06:00 -3°C° 0 mm 2 mps 750 mmHg 87%
07:00 -3°C° 0 mm 2 mps 750 mmHg 88%
08:00 -3°C° 0 mm 2 mps 750 mmHg 89%
09:00 -3°C° 0 mm 2 mps 750 mmHg 87%
10:00 -2°C° 0 mm 2 mps 750 mmHg 85%
11:00 -2°C° 0 mm 3 mps 750 mmHg 82%
12:00 -2°C° 0 mm 3 mps 750 mmHg 82%
13:00 -2°C° 0 mm 3 mps 750 mmHg 81%
14:00 -2°C° 0 mm 3 mps 750 mmHg 80%
15:00 -2°C° 0 mm 2 mps 750 mmHg 81%
16:00 -2°C° 0 mm 2 mps 750 mmHg 82%
17:00 -2°C° 0 mm 2 mps 750 mmHg 84%
18:00 -2°C° 0 mm 2 mps 750 mmHg 84%
19:00 -3°C° 0 mm 2 mps 750 mmHg 84%
20:00 -3°C° 0 mm 2 mps 750 mmHg 85%
21:00 -3°C° 0 mm 2 mps 750 mmHg 86%
22:00 -3°C° 0 mm 2 mps 750 mmHg 87%
23:00 -3°C° 0 mm 2 mps 750 mmHg 89%
Show more